User: anonymous
Location: Alberta Star Party
(51.6612°N, 112.9089°W)
Time: 10:11:33
(UTC-06:00)
Language:

AO-Echo - Orbit

View from above orbital plane
View from above orbital plane
View from above satellite
View from above satellite

Ground track
Ground track

The orbit data is extracted from the following two-line orbital elements,

1 28375U 04025K   14241.37218960  .00000158  00000-0  59693-4 0  9174
2 28375 098.2556 185.8108 0084205 130.7974 230.0560 14.41415305534458
Epoch (UTC): 29 August 2014 08:55:57
Eccentricity: 0.0084205
inclination: 98.2556°
perigee height: 694 km
apogee height: 814 km
right ascension of ascending node: 185.8108°
argument of perigee: 130.7974°
revolutions per day: 14.41415305
mean anomaly at epoch: 230.0560°
orbit number at epoch: 53445

The dashed part of the orbit path shows where the satellite is in the earth's shadow,  

DLR